Погода в Кызылорде

Хотите узнать прогноз погоды в Кызылорде? Тогда Вам сюда: Погода в Кызылорде

Поиск расширенной информации на нашем сайте:

Полезная информация:

Новости сайта



02.01.2020
Опубликован Долгосрочный прогноз погоды по городам России и ближнего зарубежья на январь 2020 года.
Карты: Прогноз на январь и февраль 2020 года, Сравнение прогнозируемой аномалии приземной температуры воздуха на январь 2020 года по разным моделям.




Погода в Кызылорде - сегодня

Время (UTC), дата Ветер
(°,м/с) 
Видим.   Явления Облачность Т
(°С)
Тd
(°С)
f(%) Тe
(°С)
Pmin
(гПа)
dP
(гПа)
Po
(мм)
O2
(г/м3)
Тmin Tmax R s Состояние
почвы
12 19.10.20 050 (СВ) 20000 м    ясно 
+22.9 -3.8 17 +23  1020.9  -1.7  754  281           
15 19.10.20 030 (СВ) н/о    ясно 
+16.5 -1.4 29 +17  1020.5  -0.7  754  287    +24.7       
18 19.10.20 050 (СВ) н/о    ясно 
+13.3 -0.2 39 +14  1019.4  -1.3  753  289    +24.7       
21 19.10.20 040 (СВ) н/о    ясно 
+11 +0.2 47 +11  1017.6  -1.9  751  291           
00 20.10.20 060 (СВ) н/о    ясно 
+8.1 +0.2 57 +7  1016.8  -1  751  294           
03 20.10.20 040 (СВ) 20000 м    ясно 
+6.7 +0.3 64 +5  1016.3  -0.5  750  295           
06 20.10.20 060 (СВ) 20000 м    ясно 
+13.6 -0.7 37 +13  1015.2  -0.8  750  288  +6.5         
09 20.10.20 060 (СВ) 20000 м    ясно 
+20.1 -1.4 23 +20  1012.9  -1.9  748  281           
12 20.10.20 040 (СВ) 20000 м    ясно 
+19.8 +3.2 33 +21  1012.7  -0.2  748  281           
15 20.10.20 тихо ()   н/о  дым  ясно 
+11.5 +0.6 47 +12  1013.5  0.3  748  289    +21       
18 20.10.20 тихо ()   н/о  дым  ясно 
+10.1 +0.2 50 +10  1013.6  748  291    +21       
21 20.10.20 тихо ()   н/о    ясно 
+5.7 -1.6 59 +6  1014.1  0.3  749  296           
00 21.10.20 280 (З) н/о    ясно 
+7.9 -0.9 54 +8  1014.1  0.1  749  293           
03 21.10.20 250 (З) 20000 м    ясно 
+6.3 -3.2 51 +6  1015.2  749  295           
06 21.10.20 250 (З) 20000 м    6/0 верхняя 
[Ci]
+17.9 +3.6 39 +18  1015.5  750  283  +5.2         
09 21.10.20 260 (З) 20000 м    6/0 верхняя 
[Ci]
+20.9 +0.9 26 +21  1014.8  -0.5  750  280           
12 21.10.20 280 (З) 20000 м  пыльный позёмок  10/0 средняя, верхняя 
[Ac und|Ci]
+16.9 +2.7 39 +17  1016.5  1.5  751  285           
15 21.10.20 300 (СЗ) н/о    10/6 600 м средняя 
[Sc|Ac und]
+12.5 +1.9 48 +12  1018.9  2.1  752  290    +21.5       
18 21.10.20 330 (СЗ) н/о  слаб. дождь  10/10 300 м 
[Ns]
+8.3 +5 80 +8  1020.6  1.4  754  294    +21.5       
21 21.10.20 260 (З) н/о  {дождь}  10/10 600 м 
[Ns]
+6.7 +4.4 85 +7  1021.3  0.6  754  296           
00 22.10.20 230 (ЮЗ) н/о  {дождь}  4/4 600 м 
[Sc]
+5.1 +3.2 88 +5  1021.5  0.1  754  298           
03 22.10.20 240 (ЮЗ) 20000 м    8/0 верхняя 
[Ci]
+4.6 +2.9 89 +4  1022.6  1.1  755  299      0.4     
06 22.10.20 250 (З) 20000 м    8/3 1000 м средняя, верхняя 
[Cu med, cong|Ac cast|Ci fib]
+10.7 +5.3 69 +11  1023.5  1.2  756  292  +4.4    0.4     
09 22.10.20 280 (З) 20000 м    9/6 600 м средняя 
[Cu med, cong|Ac As]
+11.7 +1.3 49 +11  1022.3  -1.1  755  292           
12 22.10.20 270 (З) 20000 м    10/6 600 м кучево-дожд., средняя 
[Cb cap|Ac As]
+10.9 +0.2 48 +11  1021.9  -0.4  755  292           
Время (UTC), дата Ветер
(°,м/с) 
Видим.   Явления Облачность Т
(°С)
Тd
(°С)
f(%) Тe
(°С)
Pmin
(гПа)
dP
(гПа)
Po
(мм)
O2
(г/м3)
Тmin Tmax R s Состояние
почвы

Для получения пояснительной информации подведите курсор к названию столбца.

ПОГОДА в Кызылорде - архив

Всё, что Вы хотите узнать о погоде в Кызылорде - удобно и подробно!

Выберите нужную дату (начиная с 1 января 2019* года) и нажмите кнопку "Найти".
Будут отображены архивные сводки погоды по пункту Кызылорда, начиная с указанной даты.


Отображать данные в формате CSV (для использования в таблицах Excel)


Внимание! Наш архив погоды предназначен исключительно для личного некоммерческого использования в познавательных целях. Если Вам необходимы официальные справки о состоянии погоды (для производственных, юридических, коммерческих и т.п. целей), обращайтесь в органы Росгидромета.

*Примечание: данная дата относится к архиву по метеостанциям СССР (Россия, СНГ, Балтия).
Архив по метеостанциям Зарубежной Европы и Азии (кроме Китая) хранится 10 дней, по другим регионам земного шара (Китай, Африка, Америка, Австралия, Океания) - 1 день.

Кызылорда - район местоположения метеостанции


Название, широта, долгота, высота метеостанции:
Кызылорда (город) 44.8°ш. 65.5°д. 130 м над ур. моря [Казахстан]

Дополнительная информация

В oтличие oт бoльшинства пoгoдных сайтoв мы публикуем пoдрoбную метеoинфoрмацию в детальнoм прoфессиoнальнoм фoрмате.

Характеристики температуры и влажнoсти вoздуха измеряются на высoте 2 м в тени вдали oт зданий и деревьев.
Скoрoсть ветра измеряется на высoте 10 м (на урoвне рoста челoвека скoрoсть ветра ниже в 1.5-2 раза). Если метеoстанция нахoдится в гoрoде или в лесу, тo скoрoсть ветра занижена на 2-4 м/с пo сравнению с oткрытым местoм. Скoрoсть ветра над акватoриями крупных рек и oзёр, а также на вершинах хoлмoв на 2-5 м/с выше, чем в oбычных услoвиях.
Атмoсфернoе давление в разных тoчках местнoсти мoжет значительнo oтличаться oт давления на метеoстанции, в зависимoсти oт услoвий рельефа (при пoдъёме на 10 м давление пoнижается примернo на 1 мм рт.ст.).